"Pseudo-MPEC" for P11Osmt

Created 2023 Nov 27 23:22:06 UT using Find_Orb

Click here for an explanation of pseudo-MPECs

 
 Astrometry: 
     P11Osmt* C2023 11 19(rXT6Lbyk2gFk?=#NNPdFQ*uMSyAstrometry5q(qCaL4gh3YTYyF51
     P11Osmt  C2023 11 19sPW!$-f$8JSWw,redacted;02W9^UT0iAxVTRVg+)=b_clickuo%F51
     P11Osmt  C2023 11 19S.O,?L8)9hereJvw%PaHr9$E4nP=19V-for.[:explanationp0GF51

Station data:
(F51) Pan-STARRS 1, Haleakala  (N20.707234 W156.255910)  US/Hawaii.
   Observers J. Bulger, T. Lowe, A. Schultz, M. Willman. Measurers K.
   Chambers, S. Chastel, T. de Boer, L. Denneau, J. Fairlamb, H. Flewelling,
   M. Huber, C.-C. Lin, E. Magnier, Y. Ramanjooloo, R. Wainscoat, R. Weryk.
   1.8-m Ritchey-Chrétien + CCD.

Orbital elements:  P11Osmt
   Perihelion 2024 Jan 18.02872 +/- 38 TT =  0:41:21 (JD 2460327.52872)
Epoch 2023 Nov 19.0 TT = JDT 2460267.5   Earth MOID: 0.0230   Ma: 0.0591
M 336.93125749 +/- 17               (J2000 ecliptic)             AutoNEOCP
n   0.38429510 +/- 0.29             Peri.  337.54440 +/- 110
a   1.87366874 +/- 0.944            Node   152.16552 +/- 60
e   0.5268017 +/- 0.249             Incl.    3.28793 +/- 4.8
P   2.56/936.76d           H 24.66  G  0.15   U 11.9  SR
q 0.88661678 +/- 0.253    Q 2.86072070 +/- 45.8
From 3 observations 2023 Nov. 19 (54.9 min); mean residual 0".08
Residuals in arcseconds: 
231119 F51  .07-  .08+    231119 F51  .10+  .12-    231119 F51  .03-  .04+    

Ephemerides (geocentric):
Date (UTC) HH   RA             Dec           delta  r     elong  mag " sig PA
---- --------  ------------   ------------  ------ ------ -----  --- --------
2023 11 27 23  04 54 15.597   -07 00 11.14  .12821 1.0997 150.1 21.6  57d  87
2023 11 28 00  04 54 23.773   -07 03 16.69  .12795 1.0994 150.0 21.6  57d  87
2023 11 28 01  04 54 31.982   -07 06 22.89  .12769 1.0991 150.0 21.6  57d  87
2023 11 28 02  04 54 40.223   -07 09 29.72  .12743 1.0988 149.9 21.6  57d  87
2023 11 28 03  04 54 48.497   -07 12 37.19  .12718 1.0985 149.8 21.6  57d  87
2023 11 28 04  04 54 56.804   -07 15 45.31  .12692 1.0982 149.8 21.6  57d  87
2023 11 28 05  04 55 05.144   -07 18 54.08  .12666 1.0979 149.7 21.6  57d  88
2023 11 28 06  04 55 13.517   -07 22 03.50  .12640 1.0976 149.7 21.6  57d  88
2023 11 28 07  04 55 21.925   -07 25 13.58  .12614 1.0973 149.6 21.6  58d  88
2023 11 28 08  04 55 30.366   -07 28 24.31  .12588 1.0970 149.6 21.6  58d  88
2023 11 28 09  04 55 38.841   -07 31 35.71  .12563 1.0967 149.5 21.6  58d  88
2023 11 28 10  04 55 47.350   -07 34 47.78  .12537 1.0965 149.5 21.6  58d  88
2023 11 28 11  04 55 55.894   -07 38 00.51  .12511 1.0962 149.4 21.6  58d  88
2023 11 28 12  04 56 04.472   -07 41 13.91  .12485 1.0959 149.4 21.6  58d  88
2023 11 28 13  04 56 13.086   -07 44 28.00  .12460 1.0956 149.3 21.6  58d  88
2023 11 28 14  04 56 21.734   -07 47 42.76  .12434 1.0953 149.3 21.6  58d  88
2023 11 28 15  04 56 30.418   -07 50 58.20  .12409 1.0950 149.2 21.6  58d  88
2023 11 28 16  04 56 39.137   -07 54 14.33  .12383 1.0947 149.1 21.5  58d  88
2023 11 28 17  04 56 47.892   -07 57 31.14  .12357 1.0944 149.1 21.5  58d  88
2023 11 28 18  04 56 56.683   -08 00 48.65  .12332 1.0941 149.0 21.5  59d  88
2023 11 28 19  04 57 05.510   -08 04 06.86  .12306 1.0938 149.0 21.5  59d  88
2023 11 28 20  04 57 14.374   -08 07 25.76  .12281 1.0936 148.9 21.5  59d  88
2023 11 28 21  04 57 23.275   -08 10 45.37  .12255 1.0933 148.9 21.5  59d  88
2023 11 28 22  04 57 32.212   -08 14 05.68  .12230 1.0930 148.8 21.5  59d  88
2023 11 28 23  04 57 41.186   -08 17 26.71  .12204 1.0927 148.7 21.5  59d  88
2023 11 29 00  04 57 50.198   -08 20 48.45  .12179 1.0924 148.7 21.5  59d  88
2023 11 29 01  04 57 59.247   -08 24 10.90  .12154 1.0921 148.6 21.5  59d  88
2023 11 29 02  04 58 08.334   -08 27 34.08  .12128 1.0918 148.6 21.5  59d  88
2023 11 29 03  04 58 17.460   -08 30 57.97  .12103 1.0915 148.5 21.5  59d  88
2023 11 29 04  04 58 26.623   -08 34 22.60  .12078 1.0912 148.4 21.5  59d  88
2023 11 29 05  04 58 35.826   -08 37 47.96  .12052 1.0910 148.4 21.5  59d  88
2023 11 29 06  04 58 45.066   -08 41 14.05  .12027 1.0907 148.3 21.5  59d  88
2023 11 29 07  04 58 54.346   -08 44 40.88  .12002 1.0904 148.3 21.5  60d  88
2023 11 29 08  04 59 03.666   -08 48 08.46  .11976 1.0901 148.2 21.5  60d  88
2023 11 29 09  04 59 13.025   -08 51 36.78  .11951 1.0898 148.2 21.5  60d  88
2023 11 29 10  04 59 22.423   -08 55 05.85  .11926 1.0895 148.1 21.5  60d  88
2023 11 29 11  04 59 31.862   -08 58 35.67  .11901 1.0892 148.0 21.5  60d  88
2023 11 29 12  04 59 41.341   -09 02 06.26  .11876 1.0889 148.0 21.5  60d  88
2023 11 29 13  04 59 50.861   -09 05 37.60  .11851 1.0886 147.9 21.5  60d  88
2023 11 29 14  05 00 00.421   -09 09 09.71  .11826 1.0884 147.8 21.5  60d  88
2023 11 29 15  05 00 10.023   -09 12 42.58  .11801 1.0881 147.8 21.5  60d  88
2023 11 29 16  05 00 19.666   -09 16 16.23  .11776 1.0878 147.7 21.5  60d  88
2023 11 29 17  05 00 29.351   -09 19 50.66  .11751 1.0875 147.7 21.5  60d  88
2023 11 29 18  05 00 39.077   -09 23 25.86  .11726 1.0872 147.6 21.5  60d  88
2023 11 29 19  05 00 48.846   -09 27 01.85  .11701 1.0869 147.5 21.5  60d  88
2023 11 29 20  05 00 58.657   -09 30 38.63  .11676 1.0866 147.5 21.5  60d  88
2023 11 29 21  05 01 08.511   -09 34 16.20  .11651 1.0863 147.4 21.4  60d  88
2023 11 29 22  05 01 18.408   -09 37 54.57  .11626 1.0861 147.3 21.4  60d  88